TIME,DELAY(SENSOR),PRES,OXYGEN,RAWTEMP,T(OPTODE),TCPHASE,FLUOR,BETA(BETA700),BETA(BETA412),BETA(BETA440),CDOM,C(CSC),ED(ED411.90),ED(ED443.80),ED(ED489.40),ED(ED554.70),LU(LU412.20),LU(LU443.80),LU(LU489.40),LU(LU555.00),COMP,TILTX,TILTY,CHECK
1342304675,5804,876.6199951171875000,179.5677947998047000,471.6919860839844000,8.7636604309082030,39.3046188354492200,51,108,103,84,74,15433,2147445275,2147796242,2147579958,2147830454,2147306989,2147450532,2147756160,2148275501,2888,6,14,28695
1342308271,5806,7.1999998092651370,216.4477996826172000,533.1715698242188000,6.8379249572753910,38.0787391662597660,51,107,103,82,76,15426,2147434066,2147797165,2147584082,2147834468,2147302683,2147447149,2147765412,2148282980,1010,6,14,805
1342311871,5805,9.1000003814697270,226.0036926269531200,540.2484130859375000,6.6145381927490230,37.6737709045410160,51,107,103,82,77,15434,2147430857,2147800384,2147586112,2147834761,2147302957,2147444388,2147769417,2148281462,98,6,14,57284
1342315471,5804,9.3999996185302730,228.0411071777343800,542.2656860351562000,6.5507907867431640,37.6001091003418000,52,105,102,83,77,15430,2147431798,2147799396,2147586331,2147834779,2147304914,2147443931,2147765622,2148281435,514,6,14,27074
1342319071,5803,10.1999998092651370,232.1336975097656200,544.6660156250000000,6.4748969078063965,37.4244613647460940,52,106,103,83,76,15428,2147431917,2147800457,2147584658,2147835337,2147303698,2147444480,2147768073,2148282816,801,6,14,45636
1342322671,5806,9.8999996185302730,234.1557006835937500,546.2736816406250000,6.4240398406982420,37.3474807739257800,51,116,104,82,77,15428,2147427501,2147800274,2147583286,2147833865,2147303497,2147445769,2147769947,2148281051,236,6,14,16086
1342326271,5806,1068.0000000000000000,234.0614929199218800,547.4462280273438000,6.3869380950927730,37.3740081787109400,51,106,103,82,76,15428,2147431515,2147801627,2147586541,2147835035,2147300973,2147441316,2147769965,2148281179,56,6,14,64232
1342329871,5803,10.1000003814697270,234.7700042724609400,547.4910888671875000,6.3855152130126950,37.3376808166503900,50,105,103,82,76,15421,2147429952,2147800457,2147583780,2147834377,2147309229,2147445458,2147768237,2148282322,234,6,14,62578
1342333471,5803,10.3000001907348630,233.5171966552734400,548.2435913085938000,6.3616957664489750,37.4168586730957000,51,107,103,82,76,15422,2147430180,2147802166,2147586048,2147838409,2147305938,2147439122,2147768228,2148281673,2949,6,15,46605
1342337071,5802,10.1999998092651370,235.2534027099609400,548.1223144531250000,6.3655362129211430,37.3233985900878900,51,107,103,83,75,15424,2147432557,2147797705,2147586569,2147837906,2147308489,2147444818,2147770953,2148283117,3494,6,15,52573
1342340671,5806,1055.0000000000000000,233.9645996093750000,547.5996704101562000,6.3820781707763670,37.3812294006347660,51,106,104,84,77,15421,2147430217,2147804754,2147584347,2147838235,2147305810,2147444653,2147770953,2148284745,80,6,14,13421
1342344271,5801,1078.0000000000000000,233.0827026367187500,546.2847900390625000,6.4236888885498050,37.4040718078613300,50,106,103,82,75,15419,2147428489,2147804233,2147583277,2147835264,2147305554,2147444141,2147770148,2148282797,3159,6,15,23766
1342347871,5802,1001.0000000000000000,233.7720947265625000,547.0131225585938000,6.4006400108337400,37.3809700012207000,51,106,103,83,76,15419,2147429366,2147800064,2147585554,2147836068,2147306550,2147444800,2147770934,2148280886,3564,6,14,60027
1342351471,5804,1100.0000000000000000,233.7084960937500000,548.2158813476562000,6.3625721931457520,37.4063911437988300,50,108,103,82,76,15421,2147430564,2147800411,2147586166,2147838454,2147307364,2147443318,2147769371,2148284672,3268,6,15,63930
1342355071,5805,11.3000001907348630,233.5214996337890600,547.7606201171875000,6.3769860267639160,37.4079704284668000,51,104,104,82,76,15414,2147431524,2147800557,2147585581,2147834349,2147303350,2147442861,2147771300,2148280292,2454,6,15,63588
1342358671,5807,11.1999998092651370,234.5415039062500000,547.8989257812500000,6.3726081848144530,37.3567581176757800,51,106,103,86,77,15415,2147430774,2147800987,2147585444,2147836041,2147307062,2147444992,2147766144,2148280603,38,6,15,10148
1342362271,5804,11.1999998092651370,234.5686950683593800,549.8975219726562000,6.3093318939208980,37.3918609619140600,51,105,102,81,77,15415,2147432429,2147800201,2147585508,2147835620,2147305947,2147443318,2147770432,2148278720,730,6,14,64488
1342365871,5806,1156.0000000000000000,234.7028961181640600,548.5969848632812000,6.3505082130432130,37.3606605529785160,51,104,104,84,77,15415,2147431570,2147799844,2147584813,2147833874,2147307181,2147444461,2147766976,2148281490,30,6,14,42444
1342369471,5804,11.8000001907348630,237.2946929931640600,550.0374145507812000,6.3048992156982420,37.2522392272949200,52,109,104,83,75,15414,2147433728,2147803145,2147586834,2147837174,2147306020,2147443794,2147770102,2148281526,3116,6,14,17859
1342373071,5806,1075.0000000000000000,235.9687957763672000,550.8663940429688000,6.2786431312561035,37.3360404968261700,51,105,104,83,75,15411,2147430884,2147799661,2147584429,2147836726,2147306779,2147441042,2147774720,2148284717,365,6,15,17371
1342376671,5803,1115.0000000000000000,237.9226989746093800,551.8587036132812000,6.2472062110900880,37.2524604797363300,51,107,103,82,76,15408,2147429705,2147800283,2147588041,2147836434,2147307108,2147443428,2147767954,2148278610,3189,6,14,62229
1342380271,5804,1133.0000000000000000,238.0951995849609400,551.9868164062500000,6.2431488037109375,37.2463798522949200,51,106,103,83,75,15413,2147434057,2147797577,2147585554,2147838765,2147305773,2147445778,2147769344,2148283712,115,6,14,21869
1342383871,5806,11.5000000000000000,237.0877990722656200,550.2003173828125000,6.2997422218322750,37.2658500671386700,51,106,103,82,76,15411,2147432466,2147798582,2147586130,2147836873,2147307766,2147442294,2147768923,2148280914,48,6,14,55867
1342387471,5802,1094.0000000000000000,235.8325958251953000,549.3718261718750000,6.3259768486022950,37.3157806396484400,52,109,103,83,76,15401,2147431725,2147798646,2147585810,2147834404,2147302985,2147447286,2147768996,2148279387,3194,6,14,63745
1342391071,5804,10.0000000000000000,235.8410949707031200,549.1232910156250000,6.3338470458984375,37.3107109069824200,51,105,104,83,76,15400,2147431140,2147802176,2147586322,2147835401,2147308214,2147443821,2147770395,2148282368,3360,6,15,23876
1342394671,5804,1182.0000000000000000,235.0867004394531200,549.5695190429688000,6.3197188377380370,37.3580207824707000,51,106,102,82,76,15399,2147432182,2147800832,2147585545,2147831707,2147305069,2147444352,2147768704,2148282861,3106,6,15,2938
1342398271,5802,1067.0000000000000000,236.1295013427734400,550.3994140625000000,6.2934341430664060,37.3190498352050800,51,106,105,82,77,15396,2147433901,2147802102,2147586002,2147835364,2147304429,2147446692,2147769499,2148282139,3142,6,14,35518
1342401871,5801,118.0000000000000000,236.2846069335937500,549.7813720703125000,6.3130049705505370,37.3003082275390600,50,106,102,82,76,15395,2147434934,2147802057,2147585627,2147835556,2147306194,2147448731,2147768868,2148280530,3302,6,15,23348
1342405471,5804,1074.0000000000000000,236.2418975830078000,549.3425903320312000,6.3269019126892090,37.2940216064453100,51,109,103,83,76,15365,2147430052,2147801380,2147587410,2147833133,2147307657,2147443081,2147773019,2148283529,3441,6,15,54836
1342409071,5803,12.6000003814697270,235.7799072265625000,549.8789062500000000,6.3099188804626465,37.3283996582031250,50,110,103,105,77,15364,2147430070,2147802788,2147586148,2147835236,2147307465,2147444425,2147769609,2148279908,52,6,14,1044
1342412671,5805,1259.0000000000000000,236.4037933349609400,549.8223876953125000,6.3117070198059080,37.2948493957519500,50,106,101,83,77,15363,2147432896,2147802139,2147584155,2147834733,2147303917,2147444955,2147769673,2148282112,3516,6,15,30303
1342416271,5806,1096.0000000000000000,235.3049011230468800,549.8408203125000000,6.3111248016357420,37.3518486022949200,51,107,103,83,75,15361,2147430080,2147800256,2147585179,2147834989,2147306852,2147446089,2147765540,2148282240,384,6,14,55858
1342419871,5805,1195.0000000000000000,236.8847045898437500,551.7332763671875000,6.2511792182922360,37.3045005798339840,50,106,103,84,76,15363,2147431241,2147800941,2147583085,2147834121,2147305755,2147446381,2147766016,2148282185,129,6,15,36437
1342423471,5804,1055.0000000000000000,236.9644927978515600,552.2263183593750000,6.2355580329895020,37.3091392517089840,51,105,102,84,76,15363,2147431533,2147801206,2147586779,2147834816,2147307328,2147444114,2147769938,2148280621,3377,6,14,49669
1342427071,5803,1045.0000000000000000,237.4591979980468800,552.5017089843750000,6.2268309593200680,37.2888908386230500,51,107,103,83,77,15362,2147432713,2147801837,2147582628,2147836809,2147306816,2147448512,2147773787,2148281005,3388,6,15,46782
1342430671,5805,1022.0000000000000000,237.8226013183593800,552.0015258789062000,6.2426819801330570,37.2606697082519500,51,106,102,83,76,15361,2147430189,2147800082,2147584640,2147837568,2147306020,2147444589,2147765522,2148282496,42,6,14,8874
1342434271,5804,12.6000003814697270,236.8199005126953000,550.8978881835938000,6.2776451110839840,37.2926292419433600,52,105,104,82,77,15362,2147430464,2147805805,2147586541,2147832841,2147306477,2147447414,2147771584,2148280960,190,6,15,8588
1342437871,5801,1063.0000000000000000,235.5980072021484400,549.8944702148438000,6.3094229698181150,37.3378181457519500,51,106,105,81,75,15357,2147431213,2147801069,2147584566,2147834422,2147305097,2147443794,2147769782,2148279844,224,6,14,42769
1342441471,5807,12.8999996185302730,233.6549987792968800,548.4309082031250000,6.3557658195495605,37.4128417968750000,51,104,102,81,76,15357,2147436242,2147801344,2147583149,2147836196,2147309202,2147444973,2147766500,2148280914,3201,6,15,43072
1342445071,5805,10.8999996185302730,235.5021972656250000,549.2365112304688000,6.3302631378173830,37.3310508728027340,51,108,103,82,75,15351,2147430710,2147801133,2147587830,2147834377,2147307236,2147447085,2147764544,2148281417,142,6,15,10933
1342446656,5807,1011.0000000000000000,235.4145965576172000,550.6851196289062000,6.2843861579895020,37.3615798950195300,52,106,105,82,76,15353,2147429622,2147801956,2147586669,2147832896,2147305197,2147443894,2147766820,2148282578,441,6,15,65281
